Location: ?????
(55.8833°N, 37.6500°E)
Time: 18:01:24
(UTC+00:00)

STARLINK-1056 - Pass Details

Date: 11 July 2020
Orbit: 549 x 550 km, 53.0° (Epoch: 08 August)

Event Time Altitude Azimuth Distance (km) Brightness Sun altitude
Rises 19:44:26 0° 279° (W) 2,722 7.7 -8.7°
Reaches altitude 10° 19:46:48 10° 270° (W) 1,826 6.6 -8.8°
Maximum altitude 19:50:34 34° 205° (SSW) 914 4.4 -9.1°
Enters shadow 19:53:59 12° 142° (SE) 1,700 5.5 -9.3°
